Погода в Львове

Поиск расширенной информации на нашем сайте:

Полезная информация:

Новости сайта



02.01.2020
Опубликован Долгосрочный прогноз погоды по городам России и ближнего зарубежья на январь 2020 года.
Карты: Прогноз на январь и февраль 2020 года, Сравнение прогнозируемой аномалии приземной температуры воздуха на январь 2020 года по разным моделям.




Погода в Львове - сегодня

Время (UTC), дата Ветер
(°,м/с) 
Видим.   Явления Облачность Т
(°С)
Тd
(°С)
f(%) Тe
(°С)
Pmin
(гПа)
dP
(гПа)
Po
(мм)
O2
(г/м3)
Тmin Tmax R s Состояние
почвы
09 16.01.21 280 (З) 7000 м  слаб. ливневой снег  8/8 630 м кучево-дожд. 
[Cb calv]
-11.1 -13.1 85 -14  1018.9  -0.2  733  309           
12 16.01.21 330 (СЗ) 10 км  слаб. ливневой снег  9/9 630 м кучево-дожд. 
[Cb calv]
-9 -12.9 73 -12  1017.2  -1.3  732  306           
15 16.01.21 280 (З) 10 км  в посл. час ливневой снег  8/8 1320 м 
[Sc]
-10 -12 85 -12  1016.9  -0.4  731  307           
18 16.01.21 170 (Ю) 6000 м  слаб. ливневой снег  10/10 600 м кучево-дожд. 
[Cb calv]
-10.5 -11.8 90 -10  1016.2  -0.6  731  307    -8.9  0.2     
21 16.01.21 200 (Ю) 9000 м  слаб. ливневой снег  10/10 600 м кучево-дожд. 
[Cb calv]
-7.8 -8.8 93 -9  1015.3  -0.6  731  304           
00 17.01.21 230 (ЮЗ) 9000 м  слаб. ливневой снег  10/10 800 м кучево-дожд. 
[Cb calv]
-6.4 -8.3 86 -9  1014.2  -0.8  730  302           
03 17.01.21 тихо ()   7000 м  слаб. ливневой снег  9/9 750 м кучево-дожд. 
[Cb calv]
-7.8 -9.2 90 -8  1014.5  730  304           
06 17.01.21 тихо ()   7000 м  слаб. снег{ливн. осадки}  10/10 600 м 
[Sc]
-7.7 -8.7 93 -8  1015.3  0.9  731  304  -10.5    0.4     
09 17.01.21 300 (СЗ) 7000 м  слаб. ливневой снег  10/10 300 м кучево-дожд. 
[Cb cap]
-6 -7.5 89 -7  1017  1.8  732  302           
12 17.01.21 350 (С) 9000 м  слаб. ливневой снег  10/10 300 м кучево-дожд. 
[Cb cap]
-5.3 -7.1 87 -8  1017.1  0.3  732  302           
15 17.01.21 350 (С) 8000 м  слаб. ливневой снег  10/10 270 м кучево-дожд. 
[Cb cap]
-6.9 -8.5 88 -10  1018.8  1.3  733  304           
18 17.01.21 330 (СЗ) 7000 м  слаб. ливневой снег  10/10 200 м кучево-дожд. 
[Cb cap]
-8.3 -9.7 90 -11  1020.5  1.4  734  306    -4.8  0.2     
21 17.01.21 300 (СЗ) 7000 м  слаб. ливневой снег  10/10 270 м кучево-дожд. 
[Cb cap]
-9.3 -10.5 91 -12  1021  0.4  735  307           
00 18.01.21 300 (СЗ) 3000 м  слаб. ливневой снег  10/10 300 м кучево-дожд. 
[Cb cap]
-10.4 -11.7 90 -14  1021.6  0.4  735  309           
03 18.01.21 310 (СЗ) 4800 м  слаб. ливневой снег  10/10 400 м кучево-дожд. 
[Cb calv]
-11.6 -12.9 90 -16  1022.1  0.3  735  310           
06 18.01.21 330 (СЗ) 5000 м  слаб. ливневой снег  10/10 300 м кучево-дожд. 
[Cb calv]
-12.6 -14.6 85 -16  1022.7  0.5  735  312  -12.8    0.5     
09 18.01.21 310 (СЗ) 9000 м  слаб. снег{ливн. осадки}  8/8 420 м 
[Sc]
-12.4 -15.9 75 -18  1024.1  1.3  736  312           
12 18.01.21 300 (СЗ) 9000 м  слаб. снег{ливн. осадки}  8/8 570 м 
[Sc]
-11.6 -15.1 75 -15  1023  -0.9  736  311           
15 18.01.21 290 (З) 9000 м  слаб. снег  8/8 500 м 
[Sc]
-12.4 -16.7 70 -16  1023.6  0.4  736  312           
18 18.01.21 300 (СЗ) 9000 м  слаб. снег  10/10 300 м 
[Sc]
-13.1 -15.8 80 -15  1023.9  0.1  736  313    -11.3  0.2     
21 18.01.21 тихо ()   5000 м  дымка{снег}  3/0 средняя 
[Ac trans]
-18.2 -19.4 90 -18  1024.8  0.1  736  319           
00 19.01.21 160 (Ю) 5000 м  дымка{снег}  4/0 верхняя 
[Ci fib]
-17.7 -18.9 90 -18  1024.2  -0.6  736  318      0.0     
03 19.01.21 тихо ()   6000 м  дымка  6/6 750 м 
[Sc]
-17.1 -18.3 90 -17  1022.9  -1.1  735  317           
06 19.01.21 150 (ЮВ) 8000 м  дымка  6/6 1000 м 
[Sc]
-17.8 -19 90 -20  1022.1  -0.9  734  318  -20.9    0.0     
09 19.01.21 150 (ЮВ) 2600 м  слаб. ливневой снег  10/10 630 м кучево-дожд. 
[Cb calv]
-11 -12.3 90 -13  1021  734  309           
Время (UTC), дата Ветер
(°,м/с) 
Видим.   Явления Облачность Т
(°С)
Тd
(°С)
f(%) Тe
(°С)
Pmin
(гПа)
dP
(гПа)
Po
(мм)
O2
(г/м3)
Тmin Tmax R s Состояние
почвы

Для получения пояснительной информации подведите курсор к названию столбца.

ПОГОДА в Львове - архив

Всё, что Вы хотите узнать о погоде в Львове - удобно и подробно!

Выберите нужную дату (начиная с 1 января 2019* года) и нажмите кнопку "Найти".
Будут отображены архивные сводки погоды по пункту Львов, начиная с указанной даты.


Отображать данные в формате CSV (для использования в таблицах Excel)


Внимание! Наш архив погоды предназначен исключительно для личного некоммерческого использования в познавательных целях. Если Вам необходимы официальные справки о состоянии погоды (для производственных, юридических, коммерческих и т.п. целей), обращайтесь в органы Росгидромета.

*Примечание: данная дата относится к архиву по метеостанциям СССР (Россия, СНГ, Балтия).
Архив по метеостанциям Зарубежной Европы и Азии (кроме Китая) хранится 10 дней, по другим регионам земного шара (Китай, Африка, Америка, Австралия, Океания) - 1 день.

Львов - район местоположения метеостанции


Название, широта, долгота, высота метеостанции:
Львов 49.8°ш. 23.9°д. 323 м над ур. моря [Украина]

Дополнительная информация

В oтличие oт бoльшинства пoгoдных сайтoв мы публикуем пoдрoбную метеoинфoрмацию в детальнoм прoфессиoнальнoм фoрмате.

Характеристики температуры и влажнoсти вoздуха измеряются на высoте 2 м в тени вдали oт зданий и деревьев.
Скoрoсть ветра измеряется на высoте 10 м (на урoвне рoста челoвека скoрoсть ветра ниже в 1.5-2 раза). Если метеoстанция нахoдится в гoрoде или в лесу, тo скoрoсть ветра занижена на 2-4 м/с пo сравнению с oткрытым местoм. Скoрoсть ветра над акватoриями крупных рек и oзёр, а также на вершинах хoлмoв на 2-5 м/с выше, чем в oбычных услoвиях.
Атмoсфернoе давление в разных тoчках местнoсти мoжет значительнo oтличаться oт давления на метеoстанции, в зависимoсти oт услoвий рельефа (при пoдъёме на 10 м давление пoнижается примернo на 1 мм рт.ст.).